Simultaneous Nadir Overpasses (SNOs) Predictions

Prediction of SNOs between TERRA and METOP-C Satellite Orbit:

Table of predicted SNOs for the next 14.0 days since TLE Epoch: 6/26/2021
Index Date (TERRA) Time (TERRA) Lat,Lon (TERRA) SZA (TERRA ) Date (METOP-C) Time (METOP-C) Lat,Lon (METOP-C) SZA (METOP-C ) Distance(km) Time Diff (sec)
1 06/26/2021 10:26:47 81.30, 69.21 60.65 06/26/2021 10:25:42 81.29, 69.33 60.64 2.00 65
2 06/26/2021 11:16:14 -81.29,-123.24 119.36 06/26/2021 11:16:23 -81.30,-123.05 119.33 3.32 9
3 06/29/2021 06:00:59 81.28, 135.43 60.73 06/29/2021 06:00:03 81.29, 135.46 60.71 0.70 56
4 06/29/2021 06:50:25 -81.30, -56.62 119.22 06/29/2021 06:50:43 -81.30, -56.52 119.20 1.73 18
5 07/02/2021 01:35:11 81.29,-158.02 60.91 07/02/2021 01:34:24 81.29,-158.05 60.89 0.41 47
6 07/02/2021 02:24:38 -81.29, 9.58 119.09 07/02/2021 02:25:05 -81.30, 9.59 119.07 0.89 27
7 07/04/2021 21:09:23 81.29, -91.51 61.14 07/04/2021 21:08:45 81.29, -91.57 61.12 1.04 38
8 07/04/2021 21:58:50 -81.29, 76.12 118.86 07/04/2021 21:59:26 -81.30, 76.07 118.85 0.85 36
9 07/07/2021 16:43:34 81.30, -25.04 61.42 07/07/2021 16:43:05 81.29, -25.11 61.40 1.29 29



Historial Predications of SNOs between TERRA and METOP-C
